OBJECT AD, 59125

Orbit data source: Space-Track

You're viewing an uncataloged RSO

Recently launched and/or uncataloged RSOs may have evolving metadata. Metadata may include the following, but is not limited to: Owner, Manufacturer, Bus, Motor, and Mission.

OBJECT AD, 59125 is a satellite in SSO that was launched on Mon, 04 Mar 2024 UTC via an FALCON 9 launch vehicle from the Air Force Western Test Range (AFWTR). Unknown objects in Earth's orbit typically refer to objects detected orbiting the Earth but have not yet been identified or cataloged. These objects could be anything from previously untracked satellites, spent rocket stages, debris from satellite collisions, or even natural meteoroids temporarily captured by Earth's gravity.

Loading next visibility...
Identifier
59125, 2024-043AD
Orbit
SSO
Country
Flag of TBDTBD
Related business
None
Manufacturer
Unknown
Mission
Operational Commercial Technology
Bus & Motor
Unknown
Mass
Unknown
Launch date (UTC)
2024-03-04 (3 years ago)
Launch vehicle
FALCON 9
Launch site
Air Force Western Test Range (AFWTR)
Object type
Unknown
Shape & HBR
Box + 2 Pan, 0.2 m
Radar Cross Section
0.080 m², Medium (>0.1 m² and < 1m²)

Expand to show TLE details & history
Last TLE update: 11 hours ago

TLE from 11 hours ago
0 OBJECT AD
1 59125U 24043AD  26251.35296535  .00007751  00000-0  21526-3 0  9998
2 59125  97.5748  34.7410 0007602 300.4756  59.5737 15.37158092140038
Epoch: 2026-09-08T08:28Z
TLE epoch observation values (Epoch: 2026-09-08T08:28:16.206Z)
Latitude
0.00002°
Longitude
-79.74713°
Altitude
454.998 km
Speed
7.641 km/s
True Right ascension
02h 18m 57s
True Declination
0° 00' 00"
Sunlit
Object was in full shadow at epoch
Visualization orbit readout
Latitude
Unknown
Longitude
Unknown
Altitude
Unknown
Speed
Unknown
Apparent Right ascension
Unknown
Apparent Declination
Unknown
Sunlit
N/A
Visualization observer readout
Local Sidereal Time
11:24:54
Azimuth
Unknown
Elevation
Unknown
Doppler factor
Unknown
Orbital elements
Apogee altitude
456.66 km
Perigee altitude
446.276 km
Semi-major axis
6,829.605 km
Eccentricity
0.00076
Inclination
97.5748°
RAAN
34.741°
Arg. of periapsis
300.4756°
True anomaly
59.64885°
Mean anomaly
59.5737°
Eccentric anomaly
59.61127°
Mean motion
3.84547 °/min
Orbital period
93.62 mins
BSTAR
0.00021526
Loading maneuver chart data...
Computing Atmospheric mass density...
Loading historical data...
Loading historical data...
Loading historical data...
Loading historical data...
Loading historical data...
Loading historical data...
Loading historical data...

Documentation

Showing up to 5 results
|